KWYS

Details ICAO KWYS (WYS)
Name Yellowstone
Region United States
Timezone America/Denver (UTC-6.0)
Plans Departing 36
Arriving 63
Stats Elevation 6,644 ft / 2,025 m (AMSL)
Location 44.688398° -111.117638°
Runways 1
Magnetic Variation 11.673° E
Sunrise 2018-05-26 11:47:26 UTC / 2018-05-26 05:47:26 Local
Sunset 2018-05-27 02:58:32 UTC / 2018-05-26 20:58:32 Local
Advertisement - Login to hide

Runways

ID Width Length Bearing (true) Bearing (mag) Surface Threshold Offset Overrun Length
01 150 ft / 46 m 8,399 ft / 2,560 m 26.19° 14.52° Asphalt 0 ft / 0 m 0 ft / 0 m
19 150 ft / 46 m 8,399 ft / 2,560 m 206.20° 194.53° Asphalt 0 ft / 0 m 0 ft / 0 m

Approach Navaids

Runway Type Ident Frequency Range Bearing (true) Bearing (mag) Slope Elevation
01 Localiser ILOW 110.70 MHz 18 nm / 33 km 26.20° 14.53° - 6,642 ft / 2,024 m (AMSL)
01 Glidescope ILOW 110.70 MHz 10 nm / 19 km 26.19° 14.52° 3.00° 6,642 ft / 2,024 m (AMSL)

Map

Weather


0- 5 10 15 20 25 30 35+ Temperature / ° C

Clouds and Precipitation
Forecast for 2018-05-26 06:00 UTC. Updated 6 hours ago

Ground ~20,000 ft ~40,000 ft Winds

METAR

KWYS 261035Z AUTO 00000KT 10SM FEW100 04/04 A2996 RMK AO2

TAF

Not found

Frequencies

Unicom 123.00 MHz CTAF/UNICOM
Warning: Do not use this data for real-world aviation or navigation. No guarantee of current accuracy is given.